Starlink 4310

operational
NORAD ID: 53074 Int'l Des: 2022-077 Owner: SPXS Country: US Constellation: starlink
LEOCIRCULARRETROGRADESSO

About Starlink 4310

Description loading...

Live Position

Loading 3D Globe...

Upcoming Passes

Altitude History

Altitude vs Time

uPlot chart will show altitude changes over time

Two-Line Element Set

1 53074U 22077AH 25277.77069152 .00000377 00000-0 33879-4 0 9998
2 53074 97.6032 97.5617 0002907 33.5988 326.5420 15.01260296177523
Epoch: Oct 4, 2025 • Age: 12 hours

Current Status

Altitude 575.2 km
Velocity 7.57 km/s
Sub-Earth Point -27.00°S, 160.78°E
Launch Date Jul 11, 2022
Age 3.2 years
Type internet

Technical Details

Classification Payload
Mass 297.00 kg
Dry Mass 275.00 kg
Total Mass 297.00 kg
Length 0.20 m
Diameter 2.80 m
Span 9.00 m
Shape Box + pan
Manufacturer SPXS
Bus Type Starlink
Phase Status In Orbit
Owner/State SPXS/US

Large Constellations

Loading constellations...